St-Lary-Soulan, France 16 day weather forecast

Slopes altitude range 1700 m - 2500m

Number of lifts: 31 Pistes: 100km

In some cases the lift and piste totals shown are for the ski domain (e.g. Three Valleys) rather than individual resort (e.g. Courchevel)

Overview

The 16 day weather forecast is fully updated 4 times every day.

    • Thu 21 FEB 2019
    • Thu 21
    • 6C 13C
    • Fri 22 FEB 2019
    • Fri 22
    • 5C 18C
    • Sat 23 FEB 2019
    • Sat 23
    • 7C 16C
    • Sun 24 FEB 2019
    • Sun 24
    • 5C 14C
    • Mon 25 FEB 2019
    • Mon 25
    • 5C 14C
    • Tue 26 FEB 2019
    • Tue 26
    • 1C 11C
    • Wed 27 FEB 2019
    • Wed 27
    • 4C 14C
    • Thu 28 FEB 2019
    • Thu 28
    • 4C 15C
    • Fri 01 MAR 2019
    • Fri 01
    • 2C 10C
    • Sat 02 MAR 2019
    • Sat 02
    • 4C 13C
    • Sun 03 MAR 2019
    • Sun 03
    • 5C 16C
    • Mon 04 MAR 2019
    • Mon 04
    • 7C 14C
    • Tue 05 MAR 2019
    • Tue 05
    • 5C 10C
    • Wed 06 MAR 2019
    • Wed 06
    • 5C 8C
    • Thu 07 MAR 2019
    • Thu 07
    • -2C 2C
    • Fri 08 MAR 2019
    • Fri 08
    • -4C 8C

Date:

Time Type 0°C level Temp Chill Snow Cloud Speed Gust Dir Press
18:00 2721m 13°C 13_2 0cm 0% 2mph 3mph 1029mB
21:00 2820m 5°C 5_6 0cm 0% 6mph 7mph 1031mB
0:00 2970m 5°C 5_7 0cm 0% 7mph 8mph 1031mB
3:00 3066m 5°C 5_7 0cm 0% 7mph 8mph 1031mB
6:00 3200m 5°C 5_7 0cm 0% 7mph 9mph 1031mB
9:00 3469m 5°C 5_5 0cm 0% 5mph 6mph 1031mB
12:00 3588m 18°C 18_1 0cm 0% 1mph 3mph 1029mB
15:00 3747m 19°C 19_1 0cm 0% 1mph 2mph 1027mB
18:00 3849m 19°C 19_6 0cm 0% 6mph 6mph 1027mB
21:00 3882m 9°C 9_7 0cm 0% 7mph 8mph 1028mB
0:00 3870m 8°C 8_6 0cm 0% 6mph 7mph 1028mB
3:00 3874m 8°C 8_5 0cm 0% 5mph 5mph 1027mB
6:00 3901m 7°C 7_4 0cm 0% 4mph 5mph 1027mB
9:00 3892m 7°C 7_1 0cm 0% 1mph 2mph 1029mB
12:00 3849m 16°C 16_4 0cm 0% 4mph 2mph 1028mB
15:00 3818m 17°C 17_2 0cm 0% 2mph 4mph 1026mB
18:00 3801m 17°C 17_4 0cm 0% 4mph 5mph 1028mB
21:00 3695m 8°C 8_6 0cm 0% 6mph 7mph 1030mB
0:00 3576m 7°C 7_4 0cm 4% 4mph 4mph 1031mB
3:00 3546m 6°C 6_3 0cm 37% 3mph 4mph 1031mB
6:00 3487m 6°C 6_4 0cm 30% 4mph 4mph 1032mB
9:00 3586m 5°C 5_3 0cm 3% 3mph 3mph 1032mB
12:00 3563m 14°C 14_5 0cm 2% 5mph 3mph 1032mB
15:00 3630m 15°C 15_4 0cm 0% 4mph 4mph 1030mB
18:00 3744m 15°C 15_1 0cm 0% 1mph 2mph 1031mB
21:00 3756m 6°C 6_2 0cm 0% 2mph 2mph 1032mB
0:00 3682m 5°C 5_1 0cm 0% 1mph 2mph 1033mB
3:00 3720m 5°C 5_2 0cm 4% 2mph 3mph 1032mB
6:00 3758m 5°C 5_3 0cm 3% 3mph 4mph 1031mB
9:00 3726m 5°C 5_2 0cm 1% 2mph 3mph 1031mB
12:00 3622m 14°C 14_5 0cm 1% 5mph 3mph 1029mB
15:00 3364m 14°C 14_7 0cm 1% 7mph 5mph 1027mB
18:00 2283m 14°C 14_5 0cm 6% 5mph 8mph 1029mB
21:00 2226m 6°C 6_4 0cm 98% 4mph 7mph 1030mB
0:00 2192m 5°C 5_3 0cm 94% 3mph 4mph 1031mB
3:00 2397m 2°C 2_3 0cm 16% 3mph 4mph 1031mB
6:00 2159m 1°C 1_4 0cm 9% 4mph 5mph 1031mB
9:00 2576m 1°C 1_3 0cm 0% 3mph 4mph 1031mB
12:00 2593m 11°C 11_5 0cm 0% 5mph 7mph 1029mB
15:00 2579m 12°C 12_5 0cm 0% 5mph 6mph 1027mB
18:00 2672m 12°C 12_2 0cm 0% 2mph 2mph 1028mB
21:00 2748m 3°C 3_5 0cm 0% 5mph 6mph 1029mB
0:00 2820m 3°C 3_5 0cm 0% 5mph 6mph 1028mB
3:00 2877m 3°C 3_5 0cm 0% 5mph 6mph 1027mB
6:00 2928m 3°C 3_6 0cm 0% 6mph 7mph 1026mB
9:00 2942m 4°C 4_1 0cm 0% 1mph 2mph 1026mB
12:00 2908m 14°C 14_4 0cm 0% 4mph 4mph 1024mB
15:00 2846m 15°C 15_4 0cm 0% 4mph 3mph 1022mB
18:00 2809m 15°C 15_3 0cm 0% 3mph 4mph 1023mB
21:00 2794m 5°C 5_7 0cm 0% 7mph 8mph 1024mB
0:00 2707m 5°C 5_7 0cm 0% 7mph 8mph 1025mB
3:00 2684m 4°C 4_7 0cm 0% 7mph 8mph 1025mB
6:00 2641m 4°C 4_8 0cm 0% 8mph 9mph 1027mB
9:00 2588m 4°C 4_6 0cm 9% 6mph 9mph 1027mB
12:00 2473m 15°C 15_2 0cm 51% 2mph 5mph 1026mB
15:00 2422m 15°C 15_2 0cm 96% 2mph 4mph 1025mB
18:00 2408m 15°C 15_2 0cm 95% 2mph 3mph 1026mB
21:00 2415m 6°C 6_5 0cm 93% 5mph 6mph 1028mB
0:00 2355m 5°C 5_5 0cm 77% 5mph 6mph 1028mB
3:00 2111m 2°C 2_3 0cm 65% 3mph 3mph 1027mB
6:00 1830m 2°C 2_4 0cm 35% 4mph 4mph 1027mB
9:00 2173m 2°C 2_3 0cm 30% 3mph 4mph 1027mB
12:00 2228m 10°C 10_4 0cm 25% 4mph 4mph 1026mB
15:00 2302m 11°C 11_6 0cm 12% 6mph 5mph 1024mB
18:00 2389m 11°C 11_2 0cm 36% 2mph 2mph 1024mB
21:00 2366m 4°C 4_3 0cm 67% 3mph 3mph 1026mB
0:00 2476m 4°C 4_3 0cm 60% 3mph 4mph 1026mB
3:00 2479m 4°C 4_3 0cm 82% 3mph 4mph 1025mB
6:00 2358m 4°C 4_2 0cm 91% 2mph 3mph 1026mB
9:00 2541m 4°C 4_1 0cm 87% 1mph 2mph 1026mB
12:00 2512m 13°C 13_4 0cm 66% 4mph 4mph 1025mB
15:00 2555m 13°C 13_5 0cm 18% 5mph 5mph 1024mB
18:00 2522m 13°C 13_2 0cm 12% 2mph 3mph 1026mB
21:00 2531m 5°C 5_4 0cm 51% 4mph 5mph 1028mB
0:00 2576m 4°C 4_5 0cm 59% 5mph 6mph 1028mB
3:00 2612m 4°C 4_5 0cm 56% 5mph 6mph 1027mB
6:00 2727m 4°C 4_6 0cm 54% 6mph 7mph 1027mB
9:00 2916m 5°C 5_2 0cm 73% 2mph 4mph 1026mB
12:00 2998m 16°C 16_4 0cm 84% 4mph 3mph 1024mB
Morning 0mm 0 3086m 8°C 8_11 0cm 40% 11mph 20mph 1020mB
Afternoon 0mm 0 2670m 14°C 14_9 0cm 81% 9mph 13mph 1017mB
Morning 0.385417mm 1.3125 2257m 5°C 5_4 0cm 93% 4mph 7mph 1020mB
Afternoon 0.0625mm 0.125 2165m 10°C 10_8 0cm 93% 8mph 13mph 1015mB
Morning 1.00521mm 0.0625 2323m 6°C 6_5 0cm 95% 5mph 12mph 1016mB
Afternoon 0.713542mm 0 2712m 8°C 8_3 0cm 93% 3mph 8mph 1013mB
Morning 2.70833mm 0.375 1563m 2°C 2_7 22cm 100% 7mph 12mph 1017mB
Afternoon 0.0729167mm 0.0625 1325m 2°C 2_9 1cm 79% 9mph 12mph 1026mB
Morning 0mm 0 650m -4°C -4_3 0cm 27% 3mph 10mph 1033mB
Afternoon 0mm 0 2069m 8°C 8_6 0cm 0% 6mph 7mph 1032mB
Morning 0mm 0 2813m 1°C 1_8 0cm 41% 8mph 8mph 1032mB
Afternoon 0mm 0 2752m 11°C 11_4 0cm 81% 4mph 5mph 1029mB

16 day outlook at a glance

Forecast issued: 21/02/2019 17:42:43

Chat

Your comments and questions. In a resort? Let us know what it's like!


Characters left 250

For terms and conditions see Readers Comments on the Cookie and privacy policy page.